Temp
4 4 4 4 4 4 3 2 2 2 2 2 2 2 3 3 3 3 3 3 3 3 3 3 3 3 4 4 4 4 4 4 4 3 3 3 3 4 4 4 4 4 4 4 4 4 4 4 4 4 4 4 3 3 3 3 3 3 3 3 3 3 3 2 2 2 2 2 2 2 2 2 2 2 2 3 3 3 3 3 3 3 3 3 3 3
4 3 3 3 3 3 2 2 2 2 2 1 1 2 2 2 2 2 2 3 3 3 3 3 3 3 3 3 3 3 3 3 3 3 3 3 3 3 3 3 3 3 3 3 3 3 3 3 3 3 3 3 3 3 3 3 3 3 3 3 2 2 2 2 2 2 2 2 2 2 2 2 2 2 2 2 2 2 2 3 3 3 3 3 3 3
3 3 3 2 2 2 2 1 1 1 1 1 1 1 1 1 2 2 2 2 2 2 2 2 2 2 2 3 3 3 3 3 2 2 2 2 2 3 3 3 3 3 3 3 3 3 3 3 3 3 3 3 3 2 2 2 2 2 2 2 2 2 2 2 1 1 1 1 2 2 2 2 2 2 2 2 2 2 2 2 2 2 2 2 3 3
3 3 3 2 2 2 2 1 1 1 1 1 1 1 1 1 1 2 2 2 1 1 1 2 2 2 2 2 2 2 2 2 2 2 2 2 2 2 2 2 2 2 2 2 2 2 2 2 2 2 2 2 2 2 2 2 2 2 2 2 2 2 1 1 1 1 1 1 1 1 1 1 1 1 1 2 2 2 2 2 2 2 2 2 2 2
3 3 2 2 1 1 1 1 1 1 1 1 1 1 1 1 1 2 2 1 1 1 1 2 2 2 2 2 2 2 2 2 2 2 2 2 2 2 2 2 2 2 2 2 2 2 2 2 2 2 2 2 2 1 1 2 2 2 2 2 1 1 1 1 1 1 1 1 1 1 1 1 1 1 1 1 1 1 2 2 2 2 2 2 2 2
2 2 2 2 1 1 1 1 0 0 1 1 1 1 1 1 2 2 2 2 2 2 2 2 2 2 2 2 2 2 2 2 2 2 2 2 2 2 2 2 2 2 2 2 2 2 2 2 2 1 1 1 1 1 1 1 1 1 1 1 1 1 1 1 1 1 1 1 1 1 1 1 1 1 1 1 1 1 1 1 1 1 2 2 2 2
2 2 1 1 1 1 1 1 0 0 1 1 1 1 1 1 2 2 2 2 2 2 2 2 2 2 2 2 2 2 2 2 2 2 2 2 2 2 2 2 2 2 2 1 1 1 1 1 1 1 1 1 1 1 1 1 1 1 1 1 1 1 1 1 1 1 1 1 1 1 1 1 1 1 1 1 1 1 1 1 1 1 1 1 2 2
2 1 1 1 1 1 0 1 1 1 1 1 1 2 2 2 2 2 2 2 2 2 2 2 2 2 2 2 2 2 2 2 2 1 1 2 2 2 2 2 2 2 1 1 1 1 1 1 1 1 1 1 1 1 1 1 1 1 1 1 1 1 1 1 1 1 1 1 1 1 1 1 1 1 1 1 1 1 1 1 1 1 1 1 1 1
2 1 1 1 1 1 0 0 1 1 1 1 2 2 2 2 2 2 2 2 2 2 2 2 2 2 2 1 1 1 1 1 1 1 1 1 1 1 1 1 1 1 1 1 1 1 1 1 1 1 1 1 1 1 1 1 1 1 1 1 1 1 1 1 1 1 1 1 1 1 1 1 1 0 0 0 0 1 1 1 1 1 1 1 1 1
2 1 1 1 1 1 1 1 1 1 1 2 2 2 2 2 2 2 2 2 2 2 2 2 2 2 2 1 1 1 1 1 1 1 1 1 1 1 1 1 1 1 1 1 1 1 1 1 1 1 1 1 1 1 1 1 1 1 1 1 1 1 1 1 1 1 1 1 1 0 0 0 0 0 0 0 0 0 0 0 1 1 1 1 1 1
2 2 1 1 1 1 1 1 1 1 2 2 2 2 2 2 3 3 2 2 2 2 2 2 2 2 2 2 1 1 2 2 1 1 1 1 1 1 1 1 1 1 1 1 1 1 1 1 1 1 1 1 1 0 0 0 0 0 0 0 0 0 0 0 0 0 0 0 0 0 0 0 -0 -0 -0 0 0 0 0 0 0 0 0 0 0 1
2 1 1 1 1 1 1 1 1 1 2 2 2 2 2 2 2 3 3 3 2 2 2 2 2 2 2 2 2 2 2 1 1 1 1 1 1 1 1 1 1 1 1 1 1 1 1 1 1 1 1 0 0 0 0 0 0 0 0 -0 -0 -0 -0 -0 0 0 0 0 0 0 -0 -0 -0 -0 -0 -0 -0 -0 0 0 0 0 0 0 0 0
2 1 1 1 1 1 1 1 1 2 2 2 2 2 2 2 2 3 3 3 2 2 2 2 2 2 2 2 2 2 1 1 1 1 1 1 1 1 1 1 1 1 1 1 1 1 1 0 0 0 0 0 0 -0 -0 -0 -0 -0 -0 -0 -1 -0 -0 -0 -0 -0 -0 -0 -0 -1 -1 -1 -1 -1 -0 -0 -0 -0 -0 -0 -0 -0 -0 0 0 0
2 1 1 1 1 1 1 1 2 2 2 2 2 2 2 2 2 2 2 2 2 2 2 2 1 1 1 1 1 1 1 1 1 1 1 1 1 0 0 1 0 0 0 0 0 0 0 0 -0 -0 -0 -0 -0 -0 -0 -0 -1 -1 -1 -1 -1 -1 -1 -1 -1 -1 -1 -1 -1 -1 -1 -1 -1 -1 -1 -1 -0 -0 -0 -0 -0 -0 -0 -0 -0 0
2 2 2 2 2 2 2 2 2 2 2 2 2 2 2 2 2 2 2 2 2 2 1 2 1 1 1 1 1 1 1 1 1 1 1 1 0 0 0 0 0 0 0 0 0 0 -0 -0 -0 -0 -0 -0 -0 -1 -1 -1 -1 -1 -1 -1 -1 -1 -1 -1 -1 -1 -1 -1 -1 -1 -1 -1 -1 -1 -1 -1 -1 -1 -1 -0 -0 -0 -0 -0 -0 -0
2 2 2 2 2 2 2 2 2 2 2 2 2 2 2 2 2 2 2 2 2 1 1 1 1 1 1 1 1 1 1 1 0 0 0 1 0 0 0 -0 -0 -0 -0 -0 -0 -0 -0 -0 -0 -0 -1 -1 -1 -1 -1 -1 -1 -1 -1 -1 -1 -1 -1 -2 -2 -2 -1 -1 -1 -1 -1 -1 -1 -1 -1 -1 -1 -1 -1 -1 -1 -0 -0 -0 -0 -0
2 2 2 2 2 3 3 3 2 2 2 2 2 2 2 2 1 1 1 1 1 1 1 1 1 1 1 1 0 0 0 0 0 0 0 0 0 0 -0 -0 -0 -0 -0 -0 -0 -0 -1 -1 -1 -1 -1 -1 -1 -1 -1 -1 -1 -1 -1 -1 -1 -1 -2 -2 -2 -2 -2 -2 -2 -2 -1 -1 -1 -1 -1 -1 -1 -1 -1 -1 -1 -1 -1 -0 -0 -0
3 3 3 3 3 3 3 2 2 2 2 2 1 1 1 1 1 1 1 1 1 1 1 1 1 1 1 0 -0 -0 -0 -0 -0 -0 -0 0 0 0 -0 -0 -1 -1 -1 -1 -1 -1 -1 -1 -1 -1 -1 -1 -1 -1 -1 -1 -1 -1 -1 -1 -1 -1 -2 -2 -2 -2 -2 -2 -2 -2 -2 -1 -1 -1 -1 -1 -1 -1 -1 -1 -1 -1 -1 -1 -1 -1
3 3 3 3 3 3 2 2 2 2 1 1 1 1 1 1 1 1 1 1 0 0 0 0 0 0 1 0 -0 -1 -1 -1 -1 -1 -1 -0 0 0 -0 -0 -1 -1 -1 -1 -1 -1 -1 -1 -1 -1 -1 -1 -1 -1 -1 -1 -1 -2 -2 -1 -1 -1 -1 -1 -2 -2 -2 -2 -2 -2 -2 -2 -1 -1 -1 -1 -1 -1 -1 -1 -1 -1 -1 -1 -1 -1
3 3 3 3 3 2 2 2 2 1 1 1 1 1 1 0 0 0 0 0 -0 -0 -0 -0 -0 -0 0 -0 -1 -1 -1 -1 -1 -1 -1 -1 -0 0 -0 -1 -1 -1 -1 -1 -1 -1 -1 -1 -1 -1 -1 -1 -1 -1 -2 -2 -2 -2 -2 -2 -1 -1 -1 -1 -1 -1 -2 -2 -2 -2 -2 -2 -2 -1 -1 -1 -1 -1 -1 -1 -1 -1 -1 -1 -1 -1
3 3 3 2 2 2 2 1 1 1 1 1 0 0 0 -0 -0 -0 -0 -0 -0 -1 -1 -0 -0 -0 -0 -1 -1 -1 -1 -1 -1 -1 -1 -1 -1 -0 -0 -1 -1 -1 -1 -1 -1 -1 -1 -1 -1 -1 -1 -2 -2 -2 -2 -2 -2 -2 -2 -2 -1 -1 -1 -1 -1 -1 -1 -1 -2 -2 -1 -1 -1 -1 -1 -1 -1 -1 -1 -1 -1 -1 -1 -1 -1 -1
2 2 2 2 2 2 1 1 1 0 0 0 0 -0 -0 -0 -0 -0 -1 -1 -1 -1 -1 -1 -1 -1 -1 -1 -1 -1 -2 -1 -1 -2 -2 -1 -1 -0 -1 -1 -1 -1 -1 -1 -1 -1 -1 -1 -2 -2 -2 -2 -2 -2 -2 -2 -2 -2 -2 -1 -1 -1 -1 -1 -1 -1 -1 -1 -1 -1 -1 -1 -1 -1 -1 -1 -1 -1 -1 -1 -1 -1 -1 -1 -1 -1
2 2 1 1 1 1 1 1 0 0 0 -0 -0 -0 -0 -1 -1 -1 -1 -1 -1 -1 -1 -1 -1 -1 -1 -1 -1 -1 -1 -1 -1 -2 -2 -2 -1 -1 -1 -2 -2 -2 -2 -2 -1 -1 -1 -2 -2 -2 -2 -2 -2 -2 -2 -2 -2 -2 -1 -1 -1 -1 -0 -0 -1 -1 -1 -1 -1 -1 -1 -1 -1 -1 -1 -1 -1 -1 -1 -1 -1 -1 -1 -1 -1 -1
1 1 1 1 1 1 0 0 0 -0 -0 -0 -0 -1 -1 -1 -1 -1 -1 -1 -2 -2 -2 -2 -2 -1 -1 -1 -1 -1 -1 -1 -2 -2 -2 -2 -2 -1 -1 -1 -2 -2 -2 -2 -2 -2 -2 -2 -2 -2 -2 -2 -2 -2 -2 -2 -2 -2 -2 -1 -1 -1 -1 -1 -1 -1 -2 -2 -2 -1 -1 -1 -1 -1 -1 -1 -1 -1 -1 -1 -1 -1 -1 -1 -1 -1
1 1 0 0 0 0 -0 -0 -0 -0 -1 -1 -1 -1 -1 -1 -1 -1 -2 -2 -2 -2 -2 -2 -2 -2 -1 -1 -1 -1 -2 -2 -2 -2 -2 -2 -2 -2 -1 -2 -2 -2 -2 -2 -2 -2 -2 -2 -1 -2 -2 -2 -2 -2 -2 -2 -2 -2 -2 -1 -1 -1 -2 -2 -2 -2 -2 -2 -2 -1 -1 -1 -1 -1 -1 -1 -1 -1 -1 -1 -1 -1 -1 -1 -1 -1
0 0 -0 -0 -0 -1 -1 -1 -1 -1 -1 -1 -1 -1 -2 -2 -2 -2 -2 -2 -2 -2 -2 -2 -2 -2 -2 -2 -1 -1 -1 -2 -2 -2 -2 -2 -2 -2 -2 -2 -2 -2 -2 -2 -2 -2 -2 -1 -1 -2 -2 -2 -2 -2 -2 -2 -2 -2 -2 -2 -2 -2 -2 -2 -1 -1 -1 -1 -1 -1 -1 -1 -1 -1 -1 -1 -1 -1 -1 -1 -1 -1 -1 -1 -1 -1
-1 -1 -1 -1 -1 -1 -1 -1 -2 -2 -2 -2 -2 -2 -2 -2 -2 -2 -2 -2 -2 -2 -2 -3 -2 -2 -2 -1 -1 -1 -1 -1 -2 -2 -2 -2 -2 -2 -2 -2 -2 -3 -3 -2 -2 -2 -2 -1 -1 -2 -2 -2 -2 -2 -2 -2 -2 -2 -1 -1 -2 -2 -2 -1 -1 -1 -1 -1 -1 -1 -1 -1 -1 -1 -1 -1 -1 -1 -1 -1 -1 -1 -1 -1 -1 -1
-1 -1 -1 -1 -1 -2 -2 -2 -2 -2 -2 -2 -2 -2 -3 -3 -3 -3 -3 -3 -3 -2 -2 -2 -2 -2 -2 -1 -1 -1 -1 -1 -2 -2 -2 -3 -2 -2 -2 -2 -3 -3 -3 -3 -2 -1 -1 -1 -1 -2 -2 -2 -2 -2 -2 -2 -2 -1 -1 -2 -2 -2 -2 -2 -2 -1 -1 -1 -1 -1 -1 -1 -1 -1 -1 -1 -1 -1 -1 -1 -1 -1 -1 -1 -1 -1
-2 -2 -2 -2 -2 -2 -2 -2 -2 -2 -2 -3 -3 -3 -3 -3 -3 -3 -2 -3 -3 -3 -2 -2 -2 -2 -2 -2 -1 -1 -1 -1 -2 -2 -2 -3 -3 -2 -2 -2 -3 -3 -3 -3 -2 -2 -1 -1 -2 -2 -2 -2 -2 -2 -2 -2 -2 -2 -2 -2 -2 -2 -2 -2 -2 -2 -2 -1 -1 -1 -1 -1 -1 -1 -1 -1 -1 -1 -1 -1 -1 -1 -1 -1 -1 -1
-2 -2 -2 -2 -2 -2 -2 -2 -2 -3 -3 -3 -3 -3 -3 -3 -3 -3 -3 -3 -3 -3 -3 -3 -3 -2 -2 -2 -2 -2 -2 -2 -2 -2 -3 -3 -3 -2 -2 -3 -3 -3 -3 -3 -3 -2 -2 -2 -2 -2 -2 -2 -2 -2 -2 -2 -2 -2 -2 -2 -2 -2 -2 -2 -2 -2 -2 -2 -1 -1 -1 -1 -1 -1 -1 -1 -1 -1 -1 -1 -1 -2 -1 -1 -1 -1
-2 -3 -3 -3 -3 -3 -3 -3 -3 -3 -3 -3 -3 -3 -3 -3 -3 -3 -3 -3 -3 -3 -3 -3 -3 -3 -3 -2 -3 -4 -2 -2 -2 -2 -3 -3 -3 -3 -3 -3 -3 -3 -3 -3 -3 -4 -4 -2 -2 -2 -2 -2 -2 -2 -2 -2 -2 -3 -3 -2 -2 -2 -2 -2 -2 -2 -2 -1 -1 -1 -1 -1 -1 -1 -1 -1 -1 -1 -1 -2 -2 -2 -2 -1 -1 -1
-3 -3 -3 -3 -3 -3 -3 -3 -3 -3 -3 -3 -4 -4 -4 -4 -4 -4 -4 -4 -3 -3 -3 -3 -3 -3 -3 -3 -3 -3 -2 -2 -2 -2 -3 -3 -3 -3 -3 -3 -3 -3 -3 -3 -3 -4 -5 -3 -2 -2 -2 -2 -2 -2 -2 -2 -2 -2 -3 -2 -2 -2 -2 -2 -2 -2 -2 -1 -1 -1 -1 -2 -2 -2 -2 -2 -2 -2 -2 -2 -2 -2 -2 -2 -2 -2
-3 -3 -3 -3 -3 -3 -3 -3 -4 -4 -4 -4 -4 -4 -4 -4 -4 -4 -4 -4 -4 -4 -4 -3 -3 -3 -3 -3 -3 -2 -2 -2 -2 -3 -3 -3 -3 -3 -3 -3 -3 -3 -3 -3 -3 -3 -4 -3 -3 -3 -3 -2 -2 -2 -2 -2 -2 -2 -2 -2 -2 -2 -2 -2 -2 -2 -2 -2 -2 -2 -2 -2 -2 -2 -2 -2 -2 -2 -2 -2 -2 -3 -2 -2 -2 -2
-3 -3 -3 -3 -3 -3 -3 -4 -4 -4 -4 -4 -4 -4 -4 -4 -4 -4 -4 -4 -4 -4 -4 -4 -4 -4 -3 -3 -3 -3 -3 -2 -3 -3 -3 -3 -3 -3 -3 -3 -4 -4 -4 -3 -3 -3 -3 -3 -3 -3 -3 -3 -3 -2 -2 -2 -2 -2 -2 -2 -2 -2 -2 -2 -2 -2 -2 -2 -2 -2 -2 -2 -2 -2 -2 -2 -2 -2 -2 -2 -2 -3 -3 -3 -3 -3
-3 -3 -3 -3 -3 -3 -3 -4 -4 -4 -4 -4 -4 -4 -4 -4 -4 -4 -4 -4 -4 -4 -4 -4 -4 -4 -4 -4 -4 -3 -3 -3 -3 -3 -3 -3 -4 -4 -4 -4 -4 -4 -4 -4 -4 -4 -4 -3 -4 -4 -4 -4 -3 -3 -2 -2 -2 -2 -2 -2 -2 -2 -2 -2 -2 -2 -2 -2 -2 -2 -2 -2 -2 -2 -2 -2 -2 -2 -2 -3 -3 -3 -3 -3 -3 -3
-3 -3 -3 -3 -3 -3 -4 -4 -4 -4 -4 -4 -4 -4 -4 -4 -4 -4 -4 -4 -4 -4 -4 -4 -4 -4 -4 -4 -4 -4 -3 -3 -4 -4 -4 -4 -4 -4 -4 -4 -4 -4 -4 -4 -4 -4 -4 -4 -4 -4 -4 -4 -4 -3 -2 -2 -2 -2 -2 -3 -3 -3 -3 -3 -3 -3 -2 -2 -2 -2 -2 -2 -2 -2 -3 -3 -3 -3 -3 -3 -3 -3 -3 -3 -3 -3
-3 -3 -3 -3 -4 -4 -4 -4 -4 -4 -4 -4 -4 -4 -4 -4 -4 -4 -5 -5 -5 -5 -4 -4 -4 -4 -4 -4 -4 -4 -3 -4 -4 -4 -4 -4 -5 -4 -4 -4 -4 -4 -4 -4 -4 -4 -4 -4 -4 -4 -4 -4 -4 -4 -3 -3 -3 -3 -3 -3 -3 -3 -3 -3 -3 -3 -3 -2 -2 -2 -2 -2 -3 -3 -3 -3 -3 -3 -3 -3 -3 -3 -3 -3 -3 -3
-4 -4 -4 -4 -4 -4 -4 -4 -4 -4 -4 -4 -4 -4 -4 -4 -5 -5 -5 -5 -5 -5 -5 -5 -5 -5 -5 -5 -4 -4 -4 -4 -4 -4 -5 -5 -5 -5 -5 -5 -5 -4 -4 -4 -4 -5 -5 -5 -5 -5 -4 -4 -4 -4 -4 -4 -4 -3 -3 -3 -3 -3 -3 -3 -2 -2 -2 -2 -2 -2 -2 -3 -3 -3 -3 -3 -3 -3 -3 -3 -3 -3 -3 -3 -3 -3
-4 -4 -4 -4 -4 -4 -4 -3 -4 -4 -4 -4 -4 -4 -4 -5 -5 -5 -5 -5 -5 -5 -5 -5 -5 -5 -5 -5 -5 -4 -4 -4 -4 -4 -4 -4 -5 -5 -5 -5 -5 -5 -5 -5 -5 -5 -5 -5 -5 -5 -5 -5 -5 -5 -5 -5 -4 -4 -4 -3 -3 -2 -2 -2 -2 -2 -2 -2 -3 -3 -3 -3 -3 -3 -3 -3 -3 -3 -3 -3 -3 -3 -3 -3 -3 -3
-4 -4 -4 -4 -4 -4 -4 -4 -4 -4 -4 -4 -4 -4 -5 -5 -5 -5 -5 -5 -5 -5 -5 -5 -5 -5 -5 -5 -5 -5 -4 -4 -4 -4 -4 -4 -4 -4 -5 -5 -5 -4 -5 -5 -5 -5 -5 -5 -5 -5 -5 -5 -5 -5 -5 -5 -5 -5 -5 -4 -4 -3 -2 -2 -2 -2 -2 -3 -3 -3 -3 -3 -3 -3 -3 -3 -3 -3 -3 -3 -3 -3 -3 -4 -4 -4
-4 -4 -4 -4 -4 -4 -4 -4 -4 -4 -4 -4 -4 -4 -5 -5 -5 -5 -5 -5 -5 -5 -5 -5 -5 -5 -5 -4 -4 -4 -4 -4 -4 -4 -4 -4 -4 -4 -4 -4 -4 -4 -4 -5 -5 -5 -5 -5 -5 -5 -5 -5 -5 -5 -5 -5 -5 -5 -5 -5 -5 -4 -3 -3 -3 -3 -3 -3 -3 -3 -3 -3 -3 -3 -3 -3 -3 -3 -3 -3 -3 -3 -4 -4 -4 -4
-4 -4 -4 -4 -4 -4 -4 -4 -4 -4 -4 -4 -5 -5 -5 -5 -5 -5 -5 -5 -5 -5 -5 -5 -5 -5 -5 -4 -4 -4 -4 -4 -4 -4 -4 -4 -4 -4 -4 -4 -4 -4 -4 -5 -5 -5 -5 -5 -5 -5 -5 -6 -6 -6 -6 -6 -6 -6 -6 -5 -5 -5 -5 -4 -3 -3 -3 -3 -3 -3 -3 -3 -3 -3 -3 -3 -3 -3 -3 -3 -4 -4 -4 -4 -4 -4
-4 -4 -4 -4 -4 -4 -4 -4 -4 -4 -5 -5 -5 -5 -5 -5 -5 -5 -6 -6 -6 -6 -6 -6 -6 -6 -5 -5 -4 -4 -4 -3 -4 -4 -4 -4 -4 -4 -4 -4 -4 -4 -4 -5 -5 -5 -5 -5 -6 -6 -6 -6 -6 -6 -6 -6 -6 -6 -6 -6 -5 -5 -5 -4 -4 -3 -4 -4 -3 -3 -3 -3 -3 -3 -3 -3 -3 -3 -4 -4 -4 -4 -4 -4 -4 -4
-4 -4 -4 -4 -4 -4 -4 -4 -4 -5 -5 -5 -5 -5 -5 -5 -5 -6 -6 -6 -6 -6 -6 -6 -6 -6 -6 -6 -5 -4 -4 -4 -4 -4 -4 -4 -4 -4 -4 -4 -4 -4 -4 -5 -5 -6 -6 -6 -6 -6 -6 -6 -6 -6 -6 -6 -6 -6 -6 -6 -6 -6 -5 -5 -4 -4 -4 -4 -4 -4 -4 -4 -4 -4 -4 -4 -4 -4 -4 -4 -4 -4 -4 -4 -4 -4
-4 -4 -4 -4 -4 -4 -5 -5 -5 -5 -5 -5 -5 -5 -5 -5 -6 -6 -6 -6 -6 -6 -6 -6 -6 -6 -6 -6 -6 -5 -4 -4 -4 -4 -4 -4 -4 -4 -4 -4 -4 -4 -4 -4 -5 -5 -6 -6 -6 -6 -6 -6 -6 -6 -6 -6 -6 -6 -6 -6 -6 -6 -5 -5 -5 -5 -5 -4 -4 -4 -4 -4 -4 -4 -4 -4 -4 -4 -4 -4 -4 -4 -4 -4 -4 -4
-4 -4 -4 -5 -5 -5 -5 -5 -5 -5 -5 -5 -5 -5 -5 -6 -6 -6 -6 -6 -6 -6 -6 -6 -6 -6 -6 -6 -6 -5 -5 -5 -4 -4 -4 -4 -4 -4 -4 -4 -4 -4 -4 -5 -5 -5 -6 -6 -6 -6 -6 -6 -6 -6 -6 -6 -6 -6 -6 -6 -6 -6 -5 -5 -5 -5 -5 -5 -4 -4 -4 -4 -4 -4 -4 -4 -4 -4 -4 -4 -4 -4 -4 -4 -4 -4
-5 -5 -5 -5 -5 -5 -5 -5 -5 -5 -5 -5 -6 -6 -6 -6 -6 -6 -6 -6 -6 -6 -6 -6 -6 -6 -6 -6 -6 -6 -6 -5 -5 -4 -4 -4 -4 -4 -4 -4 -4 -5 -5 -5 -5 -5 -6 -6 -6 -7 -7 -6 -6 -6 -6 -6 -6 -6 -6 -6 -6 -6 -6 -5 -5 -5 -5 -5 -4 -4 -4 -4 -4 -4 -4 -4 -4 -4 -4 -5 -5 -5 -5 -5 -5 -4
-5 -5 -5 -5 -5 -5 -5 -5 -5 -6 -6 -6 -6 -6 -6 -6 -6 -6 -6 -6 -6 -6 -6 -6 -6 -7 -6 -6 -6 -6 -6 -5 -5 -4 -4 -4 -4 -4 -4 -5 -5 -5 -5 -6 -6 -6 -6 -7 -7 -7 -7 -7 -7 -6 -6 -6 -6 -6 -6 -6 -6 -6 -6 -5 -5 -5 -5 -5 -5 -4 -4 -4 -4 -4 -4 -4 -5 -5 -5 -5 -5 -5 -5 -5 -5 -5
-5 -5 -5 -5 -5 -5 -5 -5 -6 -6 -6 -6 -6 -6 -6 -6 -6 -6 -6 -6 -6 -6 -6 -6 -7 -7 -7 -6 -6 -6 -6 -5 -5 -5 -4 -4 -4 -4 -5 -5 -5 -5 -6 -6 -6 -6 -7 -7 -7 -7 -7 -7 -7 -7 -6 -6 -6 -6 -6 -6 -6 -6 -6 -5 -5 -5 -5 -5 -5 -4 -4 -4 -4 -4 -5 -5 -5 -5 -5 -5 -5 -5 -5 -5 -5 -5
-5 -5 -5 -5 -6 -6 -6 -6 -6 -6 -6 -6 -6 -6 -6 -6 -6 -6 -6 -6 -6 -6 -6 -6 -7 -7 -7 -7 -6 -6 -6 -6 -5 -5 -5 -4 -4 -4 -5 -5 -5 -6 -6 -6 -6 -6 -6 -6 -6 -6 -6 -6 -6 -6 -6 -6 -6 -6 -6 -6 -6 -6 -6 -5 -5 -5 -5 -5 -4 -4 -4 -4 -4 -4 -4 -5 -5 -5 -5 -5 -5 -5 -5 -5 -5 -4
-5 -5 -6 -6 -6 -6 -6 -6 -6 -6 -6 -6 -5 -5 -5 -5 -6 -6 -6 -6 -6 -6 -6 -6 -7 -7 -7 -7 -6 -6 -6 -6 -5 -5 -5 -5 -4 -4 -5 -5 -5 -5 -6 -6 -6 -6 -6 -6 -6 -6 -5 -5 -5 -5 -5 -5 -5 -6 -6 -6 -5 -5 -5 -5 -5 -5 -5 -5 -4 -4 -4 -4 -4 -4 -4 -4 -5 -5 -4 -4 -4 -4 -4 -4 -4 -4
Height
827 827 828 828 828 829 829 829 830 830 830 830 830 831 831 831 832 832 832 832 832 832 832 833 833 834 834 834 835 835 835 836 836 836 836 836 836 836 837 837 837 837 837 837 837 838 838 838 838 838 839 839 839 839 839 839 839 839 839 840 840 840 841 841 842 842 842 843 843 843 843 843 843 843 843 843 843 843 843 843 843 843 843 843 843 843
827 827 827 827 827 828 829 829 829 830 830 830 830 830 831 831 831 832 832 832 832 832 832 833 833 834 834 834 835 835 835 836 836 836 836 836 836 836 836 837 837 837 837 837 837 837 837 837 838 838 838 838 838 838 838 838 838 839 839 839 839 840 840 840 841 841 842 842 842 842 842 842 842 842 842 842 842 843 843 843 843 843 843 843 843 843
826 826 827 827 827 827 828 828 829 829 829 829 830 830 830 831 831 831 831 832 832 832 832 832 833 833 834 834 834 835 835 835 836 836 836 836 836 836 836 836 836 836 837 837 837 837 837 837 837 837 837 837 837 838 838 838 838 838 838 838 839 839 839 840 840 840 841 841 841 841 841 842 842 842 842 842 842 842 842 842 842 842 842 842 842 842
825 825 826 827 827 827 827 828 828 828 829 829 829 830 830 830 831 831 831 831 832 832 832 832 833 833 834 834 834 835 835 835 835 835 835 835 836 836 836 836 836 836 836 836 836 836 837 837 837 837 837 837 837 837 837 838 838 838 838 838 838 838 839 839 839 840 840 840 840 840 841 841 841 841 841 841 841 841 841 841 841 841 841 842 842 842
824 825 825 826 826 827 827 827 828 828 828 829 829 830 830 830 831 831 831 831 832 832 832 832 833 833 833 834 834 834 835 835 835 835 835 835 835 835 835 835 835 835 836 836 836 836 836 836 836 837 837 837 837 837 837 837 837 837 837 837 837 838 838 838 839 839 839 839 839 840 840 840 840 840 840 840 840 840 840 840 841 841 841 841 841 841
824 824 824 825 826 826 827 827 827 828 828 829 829 830 830 830 831 831 831 831 832 832 832 832 832 833 833 833 834 834 834 834 834 834 834 834 834 834 834 835 835 835 835 835 835 836 836 836 836 836 836 836 837 837 837 836 837 837 837 837 837 837 837 838 838 838 838 838 838 838 839 839 839 839 839 839 839 839 840 840 840 840 840 840 840 840
823 824 824 825 825 826 826 827 827 827 828 828 829 829 830 830 830 831 831 831 832 832 832 832 832 832 832 833 833 833 833 833 833 833 834 834 834 834 834 834 834 834 835 835 835 835 835 835 836 836 836 836 836 836 836 836 836 836 836 836 837 837 837 837 837 837 837 837 837 837 837 837 838 838 838 838 838 838 839 839 839 839 839 839 840 840
822 823 824 824 825 825 826 826 826 827 827 828 828 829 829 830 830 830 831 831 831 832 832 832 832 832 832 832 832 833 833 833 833 833 833 833 833 833 833 834 834 834 834 834 835 835 835 835 835 835 835 835 835 835 835 835 835 835 836 836 836 836 836 836 836 836 836 836 836 836 837 837 837 837 837 837 837 837 838 838 838 838 839 839 839 839
821 822 823 824 824 825 825 826 826 826 827 827 828 828 829 829 829 830 830 831 831 831 832 832 832 832 832 832 832 832 832 833 833 833 832 832 832 833 833 833 833 833 834 834 834 834 834 834 834 834 834 834 834 834 834 835 835 835 835 835 835 835 835 835 835 835 835 835 835 835 835 835 835 836 836 836 836 837 837 837 837 837 838 838 838 838
821 822 822 823 824 824 825 825 825 826 826 827 827 827 828 828 829 829 830 830 830 831 831 832 832 832 832 832 832 832 832 832 832 833 833 832 832 832 832 832 833 833 833 833 833 833 833 833 833 834 834 834 834 834 834 834 834 834 834 834 834 834 834 834 834 834 834 834 834 834 834 834 834 834 835 835 835 836 836 836 836 837 837 837 837 837
821 822 822 823 823 824 824 825 825 825 826 826 827 827 827 828 828 829 829 829 830 830 831 831 831 832 832 832 832 832 832 832 832 832 832 832 832 832 832 832 832 832 832 832 832 833 833 833 833 833 833 833 833 833 833 833 833 833 833 833 833 833 833 833 833 832 832 832 832 832 832 833 833 833 833 834 834 834 835 835 835 836 836 836 836 837
821 821 822 822 823 823 824 824 825 825 826 826 826 827 827 827 828 828 828 829 829 830 830 830 831 831 831 831 831 831 831 832 832 832 832 832 832 832 832 832 832 832 832 832 832 832 832 832 832 832 832 832 832 832 832 832 832 832 832 832 832 832 832 831 831 831 831 831 831 831 831 831 832 832 832 833 833 833 834 834 834 835 835 835 836 836
820 821 821 822 822 823 823 824 824 825 825 826 826 826 827 827 827 828 828 828 829 829 830 830 830 831 831 831 831 831 831 831 831 831 831 831 831 831 831 831 831 831 831 831 831 831 831 831 832 832 831 831 831 831 831 831 831 831 831 831 830 830 830 830 830 829 829 829 829 829 830 830 830 831 831 832 832 832 833 833 834 834 834 834 835 835
820 820 821 822 822 822 823 823 824 824 825 825 825 826 826 826 827 827 828 828 829 829 829 829 830 830 830 830 830 830 830 830 830 830 830 830 830 830 830 830 830 830 830 830 830 831 831 831 831 831 831 830 830 830 830 830 830 830 830 829 829 829 829 829 828 828 828 828 828 828 829 829 829 830 830 831 831 832 832 832 833 833 833 834 834 834
819 820 820 821 822 822 822 823 823 823 824 824 825 825 825 826 827 827 827 828 828 828 829 829 829 829 829 829 829 829 829 829 829 829 830 830 830 830 830 830 830 830 830 830 830 830 830 830 830 830 830 829 829 829 829 829 828 828 828 828 828 828 827 827 827 827 827 828 828 828 828 828 829 829 830 830 831 831 831 832 832 832 833 833 833 834
818 819 820 820 821 821 822 822 823 823 823 824 824 825 825 826 826 827 827 827 828 828 828 828 828 828 828 828 828 829 829 829 829 829 829 829 829 829 829 829 829 829 829 829 829 829 829 829 829 829 828 828 828 828 828 828 827 827 827 827 827 827 827 827 827 827 827 827 827 827 828 828 828 829 829 829 830 830 830 831 831 832 832 832 833 833
818 819 819 819 820 821 821 822 822 822 823 823 824 824 825 825 826 826 827 827 827 827 827 828 828 828 828 828 828 828 828 828 828 828 828 829 829 829 829 828 828 828 828 828 828 828 828 828 827 827 827 827 827 827 827 827 827 826 826 826 826 825 825 826 826 826 826 827 827 827 827 827 828 828 828 828 829 829 830 830 831 831 831 832 832 832
818 818 819 819 819 820 821 821 822 822 822 823 823 824 824 825 825 826 826 826 827 827 827 827 827 828 827 827 827 827 828 828 828 828 828 828 828 828 828 827 827 827 827 827 827 827 827 827 826 826 826 826 826 826 826 826 825 825 825 825 824 824 824 825 825 825 825 826 826 826 827 827 827 827 827 828 828 828 829 829 830 830 830 831 831 831
817 818 818 818 819 819 820 820 821 821 822 822 823 823 824 824 825 825 825 826 826 826 827 827 827 827 827 827 827 827 827 827 827 827 827 827 827 827 827 827 826 826 826 826 826 826 826 826 825 825 825 825 825 825 825 824 824 824 824 823 823 823 823 824 824 824 824 825 825 826 826 826 826 827 827 827 827 828 828 829 829 829 830 830 830 831
817 817 818 818 818 819 819 820 821 821 821 822 822 823 823 824 824 825 825 825 826 826 826 826 827 827 827 827 827 827 827 827 827 827 827 826 826 826 826 826 825 825 825 825 825 825 825 825 824 824 824 824 824 824 824 823 823 823 823 823 822 822 823 823 823 823 824 824 824 825 825 825 826 826 826 827 827 827 827 828 828 828 829 829 829 829
817 817 817 817 818 818 819 819 820 820 821 821 822 822 823 823 824 824 824 825 825 825 826 826 826 826 827 827 826 826 826 826 826 826 826 825 825 825 825 825 825 824 824 824 824 824 824 824 824 823 823 823 823 823 823 822 822 822 822 822 822 822 822 822 822 822 823 823 823 824 824 824 825 825 825 826 826 826 827 827 827 827 828 828 828 828
816 817 817 817 817 818 818 819 819 820 820 821 822 822 822 823 823 824 824 824 824 825 825 825 825 826 826 826 826 825 825 825 825 825 825 825 824 824 824 824 824 824 824 823 823 823 823 823 823 823 822 822 822 822 822 822 822 821 821 821 821 821 821 821 821 822 822 822 822 823 823 824 824 824 825 825 825 826 826 826 826 827 827 827 827 827
816 816 816 817 817 817 818 818 819 820 820 821 821 822 822 822 823 823 823 824 824 824 824 824 825 825 825 825 825 825 825 825 825 825 825 825 824 824 824 824 823 823 823 823 823 823 822 822 822 822 822 821 821 821 821 821 821 820 820 820 820 820 820 820 821 821 821 822 822 822 822 823 823 824 824 824 825 825 825 825 826 826 826 826 826 827
815 816 816 817 817 817 818 818 819 819 820 820 821 821 822 822 822 822 823 823 823 823 824 824 824 824 824 824 824 824 824 824 824 824 824 824 824 823 823 823 823 822 822 822 822 822 822 822 821 821 821 820 820 820 820 820 820 820 819 819 819 819 820 820 820 820 821 821 821 822 822 822 822 823 823 823 823 824 824 824 824 825 825 825 825 825
815 816 816 817 817 817 818 818 819 819 820 820 821 821 821 822 822 822 822 823 823 823 823 823 823 823 823 823 823 823 823 823 823 823 823 823 823 823 823 822 822 822 822 822 822 821 821 820 820 820 819 819 819 819 819 819 819 819 819 818 819 819 819 819 820 820 820 820 821 821 821 821 822 822 822 822 822 822 823 823 823 823 823 823 824 824
816 816 816 817 817 817 818 818 819 819 819 820 820 820 821 821 822 822 822 822 822 823 823 823 823 823 822 822 822 822 822 822 822 822 823 823 822 822 822 822 822 822 821 821 821 821 820 819 819 819 819 819 819 819 819 819 818 818 818 818 818 818 819 819 819 819 819 820 820 820 820 820 821 821 821 821 821 822 822 822 822 822 822 822 822 822
816 816 817 817 817 817 818 818 819 819 819 819 820 820 820 821 821 821 822 822 822 822 822 822 822 822 822 822 822 822 821 821 822 822 822 822 822 822 822 822 822 821 821 820 820 820 819 819 818 818 818 818 818 818 818 818 818 817 817 817 818 818 818 818 818 819 819 819 819 819 819 819 820 820 820 820 820 821 821 821 821 821 821 821 821 821
815 816 816 817 817 817 817 818 818 818 819 819 819 819 820 820 821 821 821 821 822 822 822 822 822 822 822 821 821 821 821 821 821 821 821 822 822 821 821 821 821 821 820 820 819 819 818 818 818 818 818 818 818 818 818 818 818 817 817 817 817 817 818 818 818 818 818 818 818 818 818 818 819 819 819 819 819 819 819 819 820 820 820 819 819 819
815 816 816 816 817 817 817 817 818 818 818 818 819 819 819 820 820 820 820 821 821 821 821 821 821 821 821 821 821 821 821 821 820 820 821 821 821 821 821 821 821 821 820 819 818 818 818 818 818 818 818 818 818 818 818 817 817 817 817 817 817 817 817 817 817 817 817 817 817 817 817 817 817 818 818 818 818 818 818 818 818 818 818 818 817 817
815 815 816 816 816 816 817 817 817 817 818 818 818 818 818 819 819 819 820 820 820 820 820 820 820 821 821 821 821 820 820 820 820 820 820 820 820 820 820 820 820 820 820 820 819 818 817 817 817 818 818 818 817 817 817 817 817 817 817 817 817 817 817 817 817 817 817 817 817 817 817 817 817 817 817 817 817 817 817 817 817 817 817 816 816 816
814 815 815 815 815 816 816 816 817 817 817 817 817 817 817 817 818 818 819 819 819 819 819 819 820 820 820 820 821 820 819 819 819 819 820 820 820 820 820 820 820 820 820 820 819 819 818 817 817 817 817 817 817 817 817 817 817 816 816 816 816 816 816 816 816 816 816 816 816 816 816 816 816 816 816 816 816 816 816 816 816 816 815 815 815 814
814 814 814 815 815 815 815 816 816 816 816 816 817 817 817 817 817 817 817 818 818 818 818 819 819 819 819 820 820 820 819 819 818 819 819 819 819 819 819 819 819 819 819 819 820 820 819 818 817 817 817 817 816 816 816 816 816 816 816 816 816 816 816 816 816 816 816 815 815 815 815 815 815 815 815 815 815 815 815 815 815 814 814 814 813 813
814 814 814 814 814 815 815 815 815 815 815 815 815 816 816 816 816 816 816 817 817 817 817 818 818 818 818 819 818 818 818 818 818 818 818 818 818 818 818 819 819 819 819 819 819 819 819 818 817 816 816 816 816 815 815 815 815 815 815 815 815 815 815 815 815 815 815 815 815 814 814 814 814 814 814 814 814 814 813 813 813 813 813 813 812 812
813 813 813 814 814 814 814 814 814 814 814 814 814 815 815 815 815 815 815 816 816 816 816 817 817 817 817 818 818 818 818 818 818 818 818 818 818 818 818 818 818 818 818 818 818 818 818 817 817 816 816 815 815 814 814 814 814 814 814 814 814 814 814 814 814 814 814 814 814 813 813 813 813 813 813 813 813 812 812 812 812 812 812 812 812 811
812 813 813 813 813 813 813 813 813 813 813 814 814 814 814 814 814 814 814 814 814 815 815 815 816 816 817 817 817 817 817 818 817 817 817 817 817 817 817 817 817 817 817 818 818 817 817 817 817 816 816 814 814 813 814 814 814 814 814 814 814 813 813 813 813 813 813 813 812 812 812 812 812 812 812 812 812 812 812 812 812 812 812 811 811 811
812 812 812 812 812 812 812 812 813 813 813 813 813 813 813 813 813 813 813 813 813 813 814 814 814 815 815 815 816 816 817 817 817 817 816 816 816 816 816 816 817 817 817 817 817 817 817 816 816 816 815 815 814 813 813 813 813 813 813 813 813 813 813 813 812 812 812 812 812 811 811 811 811 811 811 811 811 810 810 810 810 810 810 810 810 810
811 811 812 812 812 812 812 812 812 812 812 812 812 812 812 812 812 812 812 812 812 812 812 813 813 813 814 814 814 815 815 816 816 816 815 815 815 815 816 815 816 816 816 816 816 816 816 816 815 815 815 814 814 813 812 812 812 812 812 812 812 812 812 812 812 812 811 811 811 810 810 810 810 810 809 809 809 809 809 809 809 809 809 809 809 809
811 811 811 811 811 811 811 811 811 811 811 811 811 811 811 811 811 811 811 811 811 811 812 812 812 812 812 813 813 813 814 814 815 814 814 814 814 814 815 815 815 815 815 815 815 815 815 815 815 814 814 813 813 813 812 812 812 812 811 811 811 811 811 811 811 811 810 810 810 809 809 809 809 809 808 808 808 808 808 807 807 807 807 807 807 807
810 810 810 810 810 810 810 810 810 810 810 810 811 811 810 810 810 810 810 810 810 810 810 811 811 811 812 812 812 812 813 813 813 813 813 813 813 813 814 814 814 814 814 814 814 814 815 814 814 814 813 812 812 812 812 812 811 811 810 810 810 810 810 810 810 810 809 809 809 808 808 808 808 808 807 807 807 807 806 806 806 806 806 806 805 805
809 809 809 809 809 809 809 809 809 809 809 809 809 810 809 809 809 809 809 809 809 809 809 810 810 810 810 810 810 811 811 812 812 812 812 812 812 812 813 813 813 813 813 813 813 813 813 813 813 813 812 812 812 811 811 810 810 810 810 809 808 808 808 809 809 808 808 808 808 807 807 807 807 807 807 806 806 806 805 805 805 805 805 804 804 804
808 808 808 808 808 809 809 809 808 808 808 808 808 808 808 808 808 808 808 808 808 808 808 808 808 808 808 808 809 809 809 810 810 811 811 811 812 812 812 812 812 812 812 812 812 812 812 812 812 812 812 811 811 810 810 809 809 809 809 809 807 807 807 807 807 807 807 807 807 807 806 806 806 806 805 805 805 804 804 804 804 803 803 803 803 803
807 807 807 807 808 808 808 808 807 807 807 807 807 807 807 807 807 807 807 807 807 807 807 807 807 807 807 807 807 808 808 808 809 809 809 809 810 810 810 810 811 811 811 811 811 811 811 811 811 811 810 810 810 810 808 808 808 808 808 808 807 806 806 805 805 806 806 806 806 806 806 805 805 804 804 804 803 803 803 803 802 802 802 802 802 802
806 806 806 807 807 807 807 807 807 807 807 807 807 807 807 807 806 806 806 806 806 806 806 807 807 806 806 806 806 806 807 807 807 807 807 808 808 808 808 809 809 809 809 809 809 809 809 809 809 809 809 809 809 809 807 807 807 807 807 807 807 806 805 804 804 804 805 805 805 805 804 804 804 803 803 802 802 802 802 802 801 801 801 801 800 800
805 805 805 806 806 806 806 806 806 806 806 806 805 805 806 806 805 805 805 805 805 805 806 806 806 806 805 805 805 805 805 806 806 806 806 806 807 807 807 807 808 808 808 808 808 807 808 808 808 808 808 808 808 807 807 806 805 805 805 805 806 805 804 803 803 803 803 803 803 803 803 803 803 802 802 801 801 800 800 800 799 799 799 799 799 798
803 804 804 804 804 804 804 804 804 804 804 804 804 804 804 804 804 804 804 804 804 805 805 805 805 805 805 804 804 804 804 804 804 804 805 805 805 806 806 806 806 807 807 806 806 806 807 807 806 807 807 807 807 806 805 804 804 803 803 803 803 803 802 802 802 802 802 802 802 802 802 802 802 801 800 799 799 798 798 798 798 797 797 797 797 797
802 802 803 803 803 803 803 803 803 803 803 803 803 803 803 803 803 803 803 803 804 804 804 804 804 804 804 803 803 803 803 803 803 803 803 804 804 804 805 805 805 805 805 805 805 805 805 805 805 805 806 806 805 804 803 803 803 802 802 802 802 802 801 801 801 801 801 801 801 801 801 801 801 800 799 798 797 797 797 797 796 796 796 796 796 795
801 801 801 802 802 802 802 802 802 802 802 802 802 802 802 802 802 802 802 803 803 803 803 803 803 803 803 802 802 803 803 802 802 802 802 803 803 803 803 804 804 804 804 804 804 804 804 804 804 804 805 804 803 802 801 801 801 801 800 800 800 800 800 799 799 799 800 800 799 799 800 800 799 798 798 797 796 795 795 794 795 795 794 794 794 794
799 800 800 800 801 801 801 801 802 802 802 801 801 802 802 802 802 802 802 802 802 802 802 802 802 802 802 802 802 802 802 802 802 802 802 802 802 802 802 803 803 803 803 803 803 803 802 802 802 803 803 803 802 801 799 799 799 799 799 799 799 799 798 797 797 798 798 798 798 798 799 798 798 797 797 796 795 793 793 792 793 793 793 793 792 792
798 798 798 799 799 799 800 800 800 800 801 801 801 801 801 801 801 801 801 801 801 801 801 801 801 801 801 801 801 801 801 801 801 801 801 801 801 801 802 802 802 802 802 802 802 802 802 801 801 801 801 801 800 799 798 797 797 797 798 798 798 797 797 796 796 797 797 797 797 797 797 797 797 797 796 795 794 792 791 791 791 791 791 791 791 791
797 797 797 797 798 798 798 799 799 799 799 800 800 800 800 800 800 800 800 800 800 800 800 800 800 800 800 799 800 800 800 800 800 800 800 801 801 801 801 801 801 802 802 802 802 801 801 800 799 798 798 798 798 797 797 796 795 796 796 796 796 796 796 795 795 795 796 796 796 796 796 796 796 796 795 794 793 791 790 789 789 789 790 790 790 789
795 796 796 796 797 797 797 797 798 798 798 798 799 799 799 799 799 799 799 799 799 799 799 799 799 799 798 798 798 799 799 799 799 799 799 800 800 800 800 800 800 801 801 801 801 801 800 799 798 797 796 796 796 796 795 795 794 795 795 794 794 794 794 794 794 794 795 795 795 795 795 795 794 794 794 793 792 791 789 788 787 788 788 788 788 788
Wind_Speed
7 5 4 4 4 4 6 5 4 4 4 5 7 9 11 12 12 12 11 10 10 10 9 9 10 10 10 10 9 7 6 5 4 3 2 1 2 2 3 3 3 4 4 4 5 5 5 6 6 7 7 8 8 9 9 9 8 7 6 5 3 2 0 0 0 1 2 3 3 4 4 4 4 5 5 5 6 6 6 6 6 6 7 7 7 7
7 6 5 4 4 5 6 6 6 6 6 6 6 7 9 11 12 12 11 11 10 10 10 10 10 11 10 10 9 7 6 4 4 3 3 3 4 4 4 5 5 5 5 5 6 6 6 7 7 7 8 8 8 8 7 7 6 5 4 2 2 1 1 0 0 1 2 2 3 3 4 4 4 5 5 5 5 6 6 6 6 6 7 7 7 7
8 8 7 5 4 5 7 7 8 8 7 7 7 8 8 9 11 11 10 9 9 8 8 8 8 8 8 8 7 5 4 4 4 4 3 3 4 4 5 5 5 5 5 6 6 6 6 7 7 7 7 7 6 5 5 4 4 3 3 2 2 2 2 2 2 2 3 3 4 4 4 4 5 5 5 6 6 6 6 6 6 7 7 7 7 7
9 9 9 7 6 6 6 7 8 8 8 8 8 8 7 8 9 10 9 8 6 5 4 4 3 3 4 3 3 3 3 3 3 3 3 3 4 4 4 5 5 5 5 5 5 6 6 6 6 6 5 4 3 2 2 2 3 3 3 3 3 3 3 3 3 4 4 5 5 5 5 5 5 6 6 6 6 7 7 7 7 7 7 7 7 7
9 9 9 9 8 7 7 7 7 7 7 7 7 6 5 6 7 8 8 6 5 3 2 2 2 2 3 3 3 3 3 3 3 2 3 3 3 3 3 3 4 4 4 4 5 5 5 4 4 3 2 2 2 2 2 3 3 4 3 3 3 4 4 4 5 6 6 7 7 7 7 7 7 7 7 7 7 7 7 7 7 7 7 8 8 8
9 8 8 9 8 8 8 7 7 6 6 7 6 5 4 4 5 5 5 5 4 2 2 2 2 3 3 3 3 3 3 2 2 2 2 2 2 2 3 3 3 4 4 4 4 3 3 2 2 2 3 3 4 4 4 4 5 4 4 4 5 5 6 7 7 8 9 10 10 10 10 10 10 9 8 8 8 8 8 8 8 8 8 8 8 8
10 9 9 9 8 8 8 8 7 7 7 7 6 5 5 4 4 4 3 3 3 3 2 2 2 2 2 2 2 2 2 1 1 1 1 1 2 2 3 3 3 3 3 3 3 2 3 3 4 4 5 5 6 6 6 6 6 6 6 6 7 8 9 10 10 11 12 12 13 13 13 12 12 11 10 10 9 9 9 9 8 8 8 8 8 8
11 10 9 9 8 7 7 8 8 8 8 7 7 6 5 4 3 3 3 2 2 2 2 1 1 1 0 1 1 1 1 1 1 1 1 2 2 3 3 3 3 3 3 3 3 3 4 5 5 6 6 6 7 7 7 7 8 8 9 9 10 11 12 12 13 13 14 14 14 14 14 14 13 12 12 11 10 9 9 9 8 8 8 8 8 8
12 11 10 9 8 7 6 6 7 8 8 8 7 6 5 4 3 3 3 3 3 3 3 3 3 3 3 2 1 1 1 1 1 1 2 2 3 3 3 3 3 3 3 3 3 4 5 5 6 6 7 7 8 8 8 9 10 10 11 12 13 13 14 14 14 15 15 15 15 15 15 14 14 12 11 11 10 10 9 9 9 9 9 8 8 8
11 11 10 8 6 6 5 5 6 7 7 8 8 7 6 5 4 4 4 4 4 3 4 5 5 6 6 5 4 3 3 3 3 3 3 4 4 4 5 5 5 5 5 5 5 5 5 6 6 7 7 8 8 9 9 10 11 12 13 13 14 14 14 15 15 16 16 16 16 16 15 14 13 12 11 10 10 9 9 9 9 9 9 8 8 8
10 10 9 8 7 6 5 4 4 5 6 7 8 8 7 5 5 6 6 6 5 4 5 7 7 7 7 6 5 5 5 4 4 4 4 5 5 5 5 6 6 7 7 7 7 6 6 7 7 7 8 8 9 9 10 11 12 13 13 14 14 15 15 16 16 17 17 17 16 15 14 12 11 10 10 9 9 9 9 9 9 9 8 8 8 8
10 10 9 8 8 7 6 5 5 5 6 7 7 6 6 6 5 5 6 7 7 6 6 7 8 8 7 7 6 6 6 6 5 5 5 5 6 6 6 6 7 7 7 7 7 7 7 7 7 8 8 9 9 10 11 11 12 13 13 14 14 15 15 16 16 16 15 14 13 12 11 10 9 9 9 9 8 8 8 8 8 8 8 8 8 7
10 10 9 8 8 7 7 6 6 6 7 6 5 5 5 6 7 6 5 5 6 6 6 6 6 6 7 7 7 7 7 7 6 6 6 6 6 7 7 7 7 7 7 7 7 7 7 7 7 7 8 8 9 10 11 11 12 12 13 13 14 15 15 15 15 13 12 11 10 9 9 8 8 8 8 8 8 8 8 8 8 8 8 8 7 7
10 10 9 9 8 8 7 7 7 7 7 6 6 6 7 8 8 8 6 4 4 5 5 4 4 5 6 7 7 7 7 7 7 6 6 5 5 6 6 7 7 7 7 7 8 7 7 7 7 7 8 9 10 11 11 12 12 13 13 14 15 15 15 13 11 9 8 7 6 6 6 6 6 7 7 7 7 7 7 7 7 7 7 7 7 7
12 11 10 9 9 9 8 8 8 7 7 6 6 6 7 7 8 7 6 4 3 3 4 4 4 5 7 7 7 7 7 7 6 6 5 4 4 4 6 7 8 8 8 8 8 8 7 7 8 8 9 10 11 12 12 13 14 15 15 16 15 14 12 10 8 6 5 5 5 5 4 5 5 6 6 6 6 6 7 7 7 7 7 7 7 7
12 11 10 10 10 9 9 8 8 8 8 7 6 6 5 6 6 6 6 4 3 3 3 3 4 5 7 7 7 7 6 6 5 5 5 5 4 4 6 7 8 9 9 9 9 8 9 9 10 10 11 12 12 12 12 13 14 15 15 15 14 12 10 8 6 5 4 5 5 5 5 5 5 5 5 6 6 6 6 7 7 7 7 7 7 7
11 10 10 10 10 10 9 9 8 8 8 8 7 6 6 6 6 6 6 5 4 3 3 2 3 3 3 4 5 5 4 4 5 5 6 6 5 5 6 7 8 9 10 10 10 10 11 11 12 12 12 13 13 12 12 13 14 14 14 13 12 10 8 7 5 5 5 5 5 5 5 5 5 5 5 6 6 6 6 7 7 7 7 7 8 8
10 10 9 9 10 10 10 9 8 8 8 8 7 7 7 7 7 7 7 6 4 4 3 3 3 2 1 1 2 3 3 3 4 5 6 7 7 7 8 8 9 10 10 11 11 11 11 12 12 12 11 11 11 11 11 12 12 12 12 11 10 9 8 7 6 5 5 5 5 5 5 5 5 5 6 6 6 6 7 7 7 8 8 8 8 8
9 8 8 8 9 10 10 9 8 7 7 7 7 8 8 7 7 7 7 6 5 4 4 4 4 3 2 1 2 3 3 4 4 6 7 9 10 10 9 8 9 9 10 11 11 11 11 11 11 10 9 9 9 9 9 10 10 10 10 9 9 8 8 7 7 6 6 6 6 6 6 6 6 6 6 6 7 7 7 8 8 8 8 9 9 9
9 7 6 7 9 10 10 9 8 8 8 8 8 8 7 7 6 6 6 6 6 6 6 5 5 4 3 3 4 5 6 6 7 8 9 11 11 11 8 7 7 9 10 11 11 11 10 10 9 9 8 8 9 9 9 9 9 10 10 9 9 8 8 7 7 7 7 7 6 6 7 7 7 7 7 7 7 8 8 8 8 9 9 9 9 10
8 7 6 7 8 10 10 9 9 9 9 8 8 7 6 6 5 5 5 6 6 6 6 6 5 5 5 4 4 6 8 8 8 8 9 9 10 9 7 5 6 8 9 10 10 10 9 9 9 8 9 9 9 9 9 9 10 10 10 9 9 8 8 8 7 7 7 7 7 7 7 7 7 7 7 7 8 8 8 9 9 9 9 10 10 10
8 8 7 7 8 9 10 10 10 10 9 9 8 8 7 6 6 6 6 6 6 5 5 5 5 6 7 7 7 8 10 10 10 9 8 6 8 8 4 4 6 8 9 10 10 9 9 9 9 9 10 10 9 9 9 9 10 10 10 9 9 8 7 7 7 7 7 7 7 7 6 6 6 6 7 7 8 8 8 9 9 9 10 10 10 10
8 9 8 8 8 9 10 10 10 10 10 9 9 9 8 8 7 7 7 6 6 6 6 6 7 8 9 10 10 10 11 11 10 9 6 4 5 6 4 4 6 8 9 10 10 10 10 10 10 10 10 9 8 8 8 9 10 10 10 9 8 7 7 6 6 6 6 6 6 6 6 6 6 6 7 7 8 8 8 9 9 9 9 10 10 10
8 9 8 8 8 8 9 9 10 10 10 9 9 9 9 9 8 8 7 7 7 7 7 7 8 9 9 9 9 9 9 9 8 7 5 4 5 6 6 6 7 8 9 10 10 10 11 12 11 10 8 7 6 6 8 9 10 10 9 8 7 6 5 6 6 6 6 6 6 6 6 7 7 7 7 8 8 8 9 9 9 10 10 10 11 11
7 8 8 7 7 7 8 8 8 9 9 9 9 9 9 9 9 9 8 8 7 7 6 6 6 7 6 5 5 6 7 7 7 6 5 4 5 7 8 7 7 8 9 10 10 11 12 12 9 6 4 4 5 6 8 9 10 10 9 7 5 5 5 5 6 6 7 7 7 8 8 8 8 9 9 9 9 10 10 10 11 11 12 12 13 13
7 7 7 6 6 6 6 6 6 7 7 8 8 8 8 9 8 8 7 6 5 4 3 4 5 5 5 6 6 6 7 8 8 7 6 4 5 7 8 7 6 7 9 10 11 11 12 10 6 3 2 2 4 6 8 8 8 7 6 5 4 4 5 6 6 7 7 8 8 8 9 9 10 10 10 11 11 11 12 12 12 13 14 14 15 15
7 7 7 7 7 6 6 6 5 5 5 6 6 7 7 7 6 5 5 4 3 3 4 5 6 6 6 6 5 5 6 7 8 7 6 5 5 6 7 6 6 7 9 11 12 11 10 7 4 1 1 2 4 6 7 7 6 4 3 2 3 3 4 5 6 6 7 8 8 9 9 10 10 11 11 12 12 12 13 13 14 14 14 15 16 16
7 7 8 8 8 8 7 7 7 6 6 5 6 6 6 5 5 5 5 4 4 4 6 7 7 6 5 4 4 4 5 6 7 7 7 5 4 4 6 6 5 6 9 11 12 10 7 4 2 1 1 2 4 6 7 6 5 4 3 2 2 2 3 4 5 6 7 8 8 9 9 10 10 11 11 12 13 13 14 14 14 15 15 16 17 18
6 6 7 7 8 8 8 8 8 7 7 7 7 7 7 7 7 7 7 6 6 6 7 7 7 6 5 5 5 6 6 7 7 7 7 5 5 5 6 5 5 6 8 10 10 7 4 2 2 2 2 3 4 6 6 7 6 6 5 4 4 4 4 5 6 6 7 7 8 8 9 10 10 11 11 12 13 13 14 14 14 15 16 17 18 19
6 6 7 7 7 8 8 8 8 8 8 8 8 9 10 10 10 9 9 8 8 8 8 8 7 6 5 5 5 5 6 7 8 8 8 6 5 5 5 5 5 5 6 6 5 4 3 1 1 1 2 4 5 7 7 8 8 8 7 7 6 6 5 6 6 6 6 7 7 8 8 9 9 10 11 12 12 13 14 14 14 15 16 17 19 19
5 5 6 6 6 7 7 8 8 9 9 9 9 10 10 11 10 10 10 10 10 11 10 9 9 8 7 5 2 2 3 5 6 8 7 6 5 5 6 5 5 5 5 4 4 3 2 2 0 1 2 4 6 7 8 8 8 8 8 8 8 7 6 6 5 6 6 6 7 7 7 8 9 9 10 11 11 12 13 13 14 15 16 17 19 20
5 5 5 6 6 6 7 7 8 8 9 9 9 9 9 9 9 9 9 10 11 12 12 12 11 10 9 8 6 5 4 4 5 7 6 6 6 6 7 5 5 4 4 3 3 3 2 3 3 3 5 7 9 9 9 8 8 8 8 8 8 8 6 6 6 6 7 7 7 7 7 7 8 8 9 9 10 11 11 12 12 13 15 16 18 19
6 6 7 7 7 7 7 8 8 8 8 8 8 8 8 8 8 8 9 10 11 12 13 14 14 13 12 12 12 11 8 7 7 8 8 6 6 6 6 5 5 4 4 4 4 4 4 4 5 7 10 12 12 12 10 9 7 7 7 8 8 8 6 6 7 7 8 8 8 8 8 8 8 8 8 8 9 9 10 10 10 11 13 14 16 17
7 8 8 8 8 8 8 8 8 8 8 8 8 8 8 8 8 9 9 9 11 12 13 14 15 14 14 13 13 13 12 10 9 9 9 8 6 6 6 6 6 5 5 5 5 5 5 6 7 9 11 13 14 13 11 9 7 5 6 7 8 8 8 8 8 9 9 9 10 9 9 8 8 8 8 8 9 9 9 9 9 10 11 12 14 16
8 9 9 9 8 8 8 8 8 8 9 9 9 9 9 9 10 10 10 9 10 11 12 14 15 15 15 14 13 12 11 9 8 8 8 8 7 7 7 7 7 7 6 5 4 4 5 6 8 8 9 11 13 14 11 8 6 5 5 7 8 9 9 10 10 11 11 12 12 12 11 10 10 10 10 10 10 10 9 9 9 10 10 11 13 14
9 9 9 9 8 8 8 8 8 9 9 10 10 10 10 11 11 11 11 10 10 10 11 13 14 15 15 15 14 12 10 8 7 7 7 7 8 7 7 7 7 7 7 6 5 5 5 6 8 9 10 10 11 11 10 7 5 4 5 6 7 9 10 10 11 12 13 14 14 14 13 12 12 12 12 12 12 11 11 10 11 11 11 12 12 13
9 9 9 9 8 8 8 9 9 10 11 11 11 11 11 11 12 12 11 11 10 10 11 12 13 15 16 17 16 15 13 11 9 8 7 8 8 8 7 7 8 8 7 7 7 7 7 7 8 9 10 9 8 7 8 9 8 7 7 7 8 9 9 11 12 13 14 15 15 14 13 13 13 13 13 13 13 13 13 13 13 13 13 13 13 13
9 9 9 9 9 8 9 9 10 11 11 12 11 11 11 12 12 12 12 11 11 11 11 11 12 14 15 17 18 18 17 16 14 12 11 10 10 10 9 9 9 9 9 8 8 8 8 8 7 7 8 9 9 10 11 12 12 11 11 11 11 12 13 13 13 14 14 14 14 14 13 14 14 14 15 15 15 16 16 16 15 15 14 14 13 13
10 10 10 10 9 9 9 10 10 11 12 12 12 12 12 12 12 12 12 12 12 12 12 12 12 13 14 16 17 18 19 19 18 17 15 14 13 13 12 12 12 12 12 11 10 10 10 9 9 8 8 9 10 12 12 12 13 14 14 15 15 14 14 13 13 13 13 13 13 14 14 15 15 16 17 17 17 17 17 17 17 16 15 16 16 16
11 11 11 10 10 9 10 10 11 11 12 12 12 12 12 12 13 13 13 13 13 13 12 12 12 12 13 14 15 17 18 20 20 20 20 19 18 17 17 16 16 16 16 15 14 13 13 13 13 12 12 11 11 12 12 12 13 14 14 15 16 15 13 12 12 12 12 13 13 14 15 15 15 16 16 17 17 17 17 17 17 17 17 17 17 18
12 11 11 10 10 9 10 10 11 12 13 13 13 13 13 13 13 14 14 14 14 13 13 12 12 12 12 13 14 15 16 17 19 20 21 21 21 21 21 20 20 19 19 18 18 17 16 16 15 15 14 14 14 14 15 14 14 13 13 14 16 17 16 14 13 12 12 12 12 13 14 14 15 15 16 16 17 17 17 17 18 18 18 19 19 19
12 11 11 10 9 10 10 11 12 12 13 13 13 13 14 14 13 13 13 13 12 11 10 9 9 10 10 11 12 12 13 14 15 16 17 19 19 20 20 20 20 20 19 19 19 19 19 18 17 16 16 15 14 14 15 16 15 14 14 15 17 17 17 15 12 10 10 11 11 11 12 14 15 16 17 17 18 18 18 19 19 20 20 20 20 20
12 11 11 10 10 10 11 12 12 13 14 14 14 14 13 12 11 11 11 10 10 9 8 7 8 9 11 12 12 11 10 10 10 11 12 13 14 15 16 17 17 17 17 17 18 18 18 18 17 17 17 15 15 15 15 16 16 16 15 15 15 14 12 13 13 12 12 12 12 12 13 14 16 17 18 19 20 20 20 20 20 20 20 20 20 20
13 12 11 11 11 12 13 13 13 14 14 14 14 13 12 10 8 8 8 8 8 7 7 7 8 10 12 13 14 13 10 9 8 9 9 10 10 11 12 12 12 13 14 15 16 17 16 16 16 16 15 15 15 15 16 16 17 16 16 16 16 16 16 16 16 16 16 16 15 15 15 15 16 18 19 20 21 21 21 21 21 21 20 20 19 19
14 14 13 13 13 13 13 14 14 15 15 14 13 12 10 8 7 7 7 8 8 8 8 8 8 9 11 13 14 13 11 9 8 7 8 8 9 9 9 10 10 11 11 13 14 15 15 15 15 14 14 14 15 16 17 17 17 18 18 17 17 18 19 19 19 19 19 18 17 16 15 15 16 18 20 21 22 22 22 21 21 21 20 20 19 19
16 16 15 15 15 15 15 15 15 15 14 14 13 11 9 7 7 7 8 8 9 9 9 9 10 10 11 12 13 13 12 10 9 8 8 9 9 9 9 9 9 10 10 11 12 13 15 15 15 14 13 13 15 16 18 18 18 19 20 19 19 19 20 20 20 19 19 18 18 16 15 15 16 18 19 21 22 22 22 22 21 21 20 20 20 19
17 16 16 16 15 15 15 15 14 14 14 13 13 11 9 8 8 9 9 10 10 10 10 10 11 12 13 13 13 12 12 11 10 10 10 10 10 10 10 10 10 9 10 10 11 12 13 14 15 14 14 14 15 16 18 19 20 20 21 21 20 20 20 21 20 19 18 17 17 16 15 15 16 17 19 20 21 22 22 22 21 20 20 19 19 19
16 16 15 15 15 15 15 14 14 13 13 14 13 12 11 10 10 11 11 12 11 11 11 12 13 14 15 15 15 14 13 13 12 11 11 11 11 11 10 10 10 10 10 10 11 11 12 13 14 15 16 16 16 17 19 20 21 21 21 21 20 20 21 21 20 19 17 16 15 15 14 15 16 17 18 19 20 21 21 21 20 19 19 18 18 18
14 14 15 15 15 15 14 14 13 13 14 14 14 13 12 12 12 13 13 13 13 13 13 13 14 14 15 15 15 15 14 13 13 12 12 11 11 11 10 10 10 9 10 10 11 12 13 14 15 16 17 19 19 20 21 22 22 22 21 21 21 21 21 21 20 19 17 16 15 14 14 15 15 16 17 18 19 20 21 21 20 19 18 18 17 17
14 14 15 15 15 15 14 14 14 14 14 14 14 14 13 13 13 14 14 14 14 14 14 14 14 15 16 16 15 15 14 14 14 13 12 11 11 11 10 10 10 9 10 10 11 12 13 15 17 18 19 19 20 22 23 23 23 22 21 21 21 21 21 21 20 18 17 15 14 14 14 15 15 15 16 17 19 20 21 21 20 19 18 17 17 17
15 15 16 16 16 15 15 14 14 14 15 15 15 14 14 14 14 15 15 15 15 15 15 15 15 15 16 16 16 15 15 14 14 14 13 12 12 11 11 11 11 11 11 10 10 10 10 11 12 14 17 18 19 19 21 22 22 21 20 21 20 20 20 19 19 17 15 14 13 14 14 15 15 15 16 16 17 19 20 20 20 19 17 16 16 17
Wind_Direction
176 175 190 217 216 186 161 170 174 169 170 168 169 173 177 173 164 157 154 154 155 156 159 162 163 163 162 162 164 168 175 184 193 202 223 247 263 276 288 303 311 313 311 311 312 313 315 317 318 319 319 319 320 321 323 323 321 316 311 301 288 274 246 64 351 321 322 323 324 321 320 315 306 297 293 290 292 300 308 315 316 313 308 307 309 310
178 173 170 201 217 201 177 174 173 169 163 162 165 171 176 175 170 166 164 165 164 163 166 170 174 176 178 179 181 184 192 208 235 263 283 293 298 299 301 307 312 316 317 318 319 320 321 322 323 322 321 320 322 324 327 326 322 316 305 287 262 228 200 203 286 308 308 310 311 312 312 309 303 296 291 292 295 299 301 307 309 307 302 302 302 302
175 171 169 178 196 198 184 178 178 179 175 170 167 170 175 176 173 170 170 172 174 174 178 185 190 194 197 199 201 206 218 235 253 267 278 289 296 300 303 304 308 312 316 318 320 321 320 320 320 320 319 320 322 325 326 319 312 303 289 268 246 232 227 243 263 276 287 288 289 292 296 300 303 301 299 298 299 298 295 296 297 297 297 299 300 301
174 171 173 175 180 187 188 185 185 185 184 177 171 170 174 174 172 169 169 170 173 177 184 199 213 225 230 235 242 256 268 276 278 277 281 292 297 300 301 303 305 308 311 312 314 315 315 314 314 313 311 312 316 314 298 281 275 271 268 263 255 248 251 260 268 273 276 277 278 281 285 291 296 300 301 299 297 295 292 291 291 292 294 297 299 299
171 173 178 177 174 177 188 193 190 186 184 174 162 155 162 168 168 167 168 166 167 175 198 217 245 268 278 286 294 296 298 301 300 294 290 291 292 292 290 289 292 294 296 297 300 303 304 305 300 289 277 263 240 226 230 238 247 254 260 260 259 259 262 269 274 277 279 281 282 282 283 284 287 290 293 293 291 290 289 288 288 289 290 293 294 294
164 171 180 179 177 181 190 191 184 177 176 167 156 149 155 161 161 160 162 166 175 197 233 253 266 277 287 292 294 295 297 305 307 302 291 284 278 272 265 262 266 270 275 279 283 286 281 270 248 227 220 217 218 222 231 240 248 253 257 260 262 266 270 275 279 283 286 288 288 288 287 285 283 281 282 283 284 285 285 285 286 287 288 288 290 291
160 167 173 176 182 192 197 192 183 176 174 168 161 157 162 160 155 153 160 175 194 217 241 258 274 286 295 305 308 306 311 320 331 323 293 271 264 259 251 249 250 253 258 259 255 245 235 224 220 220 225 229 234 239 245 250 255 258 261 264 269 273 277 281 285 288 290 291 291 291 291 289 286 282 278 276 276 278 279 281 282 284 285 285 286 287
159 166 171 174 180 191 198 195 187 180 177 168 160 156 158 156 151 150 160 179 199 210 212 180 142 148 214 319 328 324 329 345 336 305 283 267 265 262 258 254 250 247 244 240 234 232 234 233 234 235 241 246 251 256 258 260 262 264 267 271 275 279 283 285 287 289 290 290 291 291 291 290 288 284 278 273 270 270 273 275 276 278 280 281 281 281
161 164 171 178 180 180 186 195 190 181 176 169 162 160 166 167 165 162 167 180 186 184 172 156 149 153 164 170 189 215 222 216 220 233 252 262 268 274 275 274 271 267 267 264 261 259 257 256 255 255 257 261 264 266 267 268 269 271 275 278 280 283 285 286 287 287 287 288 288 289 289 288 286 282 276 270 266 265 266 268 269 272 273 276 277 278
164 162 163 170 177 179 177 190 187 178 173 168 164 163 171 184 191 192 192 193 190 178 168 164 165 168 170 178 196 216 232 237 235 232 235 246 259 270 278 283 286 289 291 292 292 288 283 280 276 274 274 274 274 275 275 276 278 279 281 283 284 285 285 285 285 286 286 286 286 286 285 283 280 277 272 268 264 263 263 264 265 267 269 272 274 274
156 158 157 160 168 176 178 183 176 166 164 166 166 166 169 181 196 202 198 197 195 189 180 176 177 178 182 195 216 240 259 270 269 261 250 248 252 261 271 277 283 288 292 293 294 294 292 291 288 287 286 283 283 282 283 283 285 286 287 287 287 287 287 287 287 287 287 286 285 283 280 277 273 269 266 264 263 262 262 261 262 263 266 268 270 271
151 156 159 163 167 170 174 175 167 157 159 164 169 174 177 183 191 196 194 190 187 186 186 188 191 195 205 220 240 260 273 280 281 277 275 272 271 271 273 274 277 280 285 287 289 291 294 295 295 294 292 290 289 289 289 290 290 290 290 290 290 290 291 292 292 291 290 287 284 279 274 270 265 262 259 258 259 260 260 260 260 261 263 264 266 266
155 159 162 166 169 171 173 174 173 171 170 175 182 187 185 189 191 188 177 167 168 175 182 192 205 217 229 242 256 267 275 276 275 275 278 285 291 293 289 287 286 286 287 290 293 295 297 297 294 291 288 288 289 289 289 289 289 289 288 289 290 292 294 295 296 295 294 290 284 277 269 263 259 256 253 252 254 256 258 258 258 259 259 260 261 261
157 160 163 166 172 176 178 179 179 180 183 186 188 185 181 187 192 192 180 159 159 173 186 198 218 239 250 259 266 272 274 274 273 271 271 279 289 294 294 293 291 291 291 291 292 293 293 290 284 278 276 278 280 282 283 283 282 282 283 285 289 292 295 296 297 298 298 297 293 284 273 262 258 256 253 250 252 254 256 256 256 256 257 257 257 256
161 163 165 171 177 182 185 187 188 187 183 182 183 183 183 187 193 196 191 177 177 193 206 220 232 244 252 260 267 271 272 271 268 262 258 257 264 274 280 283 283 284 285 285 285 285 284 280 275 272 272 273 275 278 280 280 280 281 283 287 290 293 295 294 294 295 299 300 298 293 283 271 265 262 259 255 254 255 254 254 254 254 254 254 254 254
167 168 171 177 182 184 187 189 188 183 177 177 180 181 177 180 188 194 194 194 196 202 214 235 245 245 245 252 260 265 266 263 254 243 238 237 242 256 269 278 281 281 280 281 281 281 280 278 276 275 275 274 275 276 277 278 280 283 287 291 293 294 292 289 286 285 288 290 289 286 280 274 269 265 262 259 257 256 256 255 255 254 254 254 254 254
172 174 178 182 183 182 182 182 180 178 176 177 178 175 173 176 181 186 190 195 196 194 199 226 250 254 241 250 255 257 255 246 239 237 239 242 250 262 271 279 282 281 280 280 281 281 282 283 284 283 281 280 278 276 276 278 281 286 290 293 293 292 287 281 276 275 279 282 283 281 277 273 269 266 263 260 259 258 256 257 256 256 256 255 256 256
176 181 186 184 180 176 176 176 177 180 185 186 186 186 187 187 188 190 192 196 196 195 203 219 241 261 273 234 240 243 236 231 238 251 264 269 274 278 280 280 279 280 280 281 282 285 290 293 294 292 289 286 283 281 279 281 284 288 291 292 291 287 282 277 270 264 266 273 276 276 273 271 269 266 264 262 261 260 258 258 258 258 258 258 259 259
177 183 188 184 178 175 175 177 182 189 194 196 198 198 197 198 199 200 201 203 205 207 211 219 232 250 279 264 240 242 251 255 270 284 292 293 293 292 289 282 278 277 279 281 286 292 298 300 300 298 296 293 291 290 289 290 292 293 294 293 289 284 279 275 268 260 256 261 267 270 270 269 267 266 265 264 263 262 261 261 261 261 261 261 262 262
174 178 181 178 175 174 175 180 186 191 193 198 200 201 198 201 204 206 207 210 212 216 220 222 228 239 258 271 268 266 272 277 288 298 303 302 302 302 297 284 276 275 278 282 289 297 302 302 302 301 301 300 299 299 299 299 298 297 296 294 289 282 277 274 269 262 256 253 256 260 263 264 265 265 264 264 264 264 263 263 263 264 263 264 264 265
174 173 175 178 179 177 176 180 185 189 192 194 194 191 189 192 195 199 205 209 214 219 224 226 230 236 245 259 272 277 281 286 295 303 304 303 304 307 306 290 277 276 279 284 292 299 301 302 302 301 300 300 300 299 297 295 294 293 293 292 289 282 277 272 269 265 259 254 253 252 253 255 258 261 263 265 265 265 265 265 266 266 266 266 266 266
177 176 178 182 184 182 180 180 182 186 190 191 184 176 174 175 180 185 191 196 202 207 212 218 228 235 240 247 257 269 277 283 289 296 301 298 301 307 320 300 287 284 285 290 296 300 301 301 299 297 294 292 290 289 287 286 285 287 291 293 290 282 275 269 267 264 260 256 253 252 253 254 258 262 265 266 266 266 266 266 267 267 267 268 268 268
178 178 180 182 184 184 184 183 184 186 189 189 186 183 181 178 177 179 180 185 191 198 209 221 233 242 246 248 252 259 269 274 281 287 292 283 296 310 318 298 288 287 289 293 298 301 301 301 299 296 291 285 281 279 279 279 283 289 295 296 290 282 272 266 263 260 258 255 252 252 253 256 258 261 264 265 266 265 266 266 267 267 267 268 268 268
178 180 181 184 187 189 189 190 191 194 196 197 197 196 194 192 192 192 193 199 206 216 227 238 248 256 259 258 257 258 261 267 275 279 276 270 286 300 307 298 289 286 288 291 295 298 301 302 302 299 289 282 278 277 278 281 288 295 298 295 288 278 269 263 259 256 254 251 248 247 248 247 249 251 253 256 257 258 259 260 261 262 264 264 264 265
180 184 188 192 196 198 200 202 204 207 209 211 211 209 207 207 208 211 215 221 229 237 247 256 265 271 274 276 273 264 255 263 271 272 265 268 284 297 309 307 297 290 290 291 295 299 302 305 305 299 285 280 280 283 287 293 298 300 296 288 280 269 263 258 255 253 251 249 247 246 246 246 246 247 248 250 252 253 255 257 258 260 262 264 265 266
181 186 190 191 193 197 202 207 210 213 217 219 218 216 214 214 217 222 228 233 236 240 247 254 265 275 286 290 283 266 253 258 264 266 262 267 282 296 311 315 308 296 293 295 300 306 309 312 312 306 290 288 288 293 303 310 311 305 293 278 264 258 257 257 258 258 259 258 257 256 256 255 256 256 256 257 258 259 261 262 264 266 268 269 270 270
170 174 178 178 178 180 183 185 188 194 204 210 213 214 215 216 218 220 220 221 223 232 241 245 253 264 276 280 276 264 251 254 257 260 262 268 278 293 311 319 314 301 297 301 308 314 317 322 327 348 355 301 300 310 324 333 336 333 318 285 262 260 263 266 269 271 272 272 270 269 269 268 268 268 268 268 268 269 270 271 272 273 274 274 274 274
171 176 180 184 186 186 187 186 186 190 197 205 211 217 224 226 219 212 211 211 219 233 244 245 248 255 266 274 278 274 262 259 255 256 263 264 266 283 307 317 314 305 304 309 315 322 329 339 355 11 357 311 310 321 334 345 353 360 360 347 316 294 287 286 286 285 284 282 280 278 277 276 275 274 275 274 274 274 275 276 276 276 276 275 274 274
191 195 197 202 204 205 205 206 209 214 222 229 235 241 248 250 243 232 227 222 223 233 246 251 253 257 263 273 277 277 271 261 254 253 260 257 259 277 301 308 305 304 309 315 319 327 348 11 19 360 338 322 322 329 337 342 345 345 343 337 326 314 305 300 297 294 292 290 287 284 282 279 278 277 276 276 276 276 276 276 277 276 276 275 274 274
210 213 216 218 220 222 223 226 231 237 244 250 254 257 261 262 259 253 247 237 231 234 243 247 250 254 261 269 277 276 266 248 243 248 255 249 254 273 288 288 288 298 312 321 323 325 346 21 57 348 326 323 327 332 335 334 332 329 325 321 316 310 304 300 297 295 294 293 292 289 285 283 280 279 279 278 278 277 277 277 277 276 276 275 275 275
215 218 219 222 226 231 236 241 247 252 256 258 258 261 264 266 264 260 253 244 237 236 238 241 243 245 248 253 260 272 266 231 233 246 253 247 251 266 276 276 282 295 309 320 320 316 323 323 233 187 287 305 314 320 322 321 317 313 310 306 303 300 300 298 297 297 299 300 299 296 291 288 285 283 282 281 280 280 279 278 278 277 276 276 276 276
215 217 216 218 226 236 246 254 261 263 263 261 260 260 263 265 265 261 254 247 242 239 239 239 240 240 239 239 236 241 259 247 250 257 260 255 257 265 271 271 277 286 291 293 289 280 271 307 289 258 283 295 303 308 311 310 307 302 298 294 294 295 297 300 301 303 305 306 305 302 298 294 291 288 286 285 283 282 282 281 280 279 278 278 279 279
209 212 212 218 228 240 252 260 265 266 265 264 262 263 265 266 266 263 257 251 245 243 241 240 239 239 238 239 240 243 251 261 267 268 267 264 261 261 263 260 259 260 261 261 263 262 261 278 285 289 294 300 304 308 312 313 309 300 293 289 290 294 299 301 303 305 307 307 307 305 302 299 295 292 290 288 287 286 285 284 283 281 281 281 282 283
210 214 220 229 239 249 255 259 259 259 260 261 263 266 268 270 271 269 264 256 249 245 242 240 239 238 237 239 241 244 249 256 262 265 268 265 260 257 255 247 240 239 243 250 254 257 261 265 276 290 297 301 304 309 315 321 320 309 296 292 292 295 302 304 305 306 307 307 307 307 306 304 301 298 296 294 293 292 290 289 286 284 282 282 283 285
222 228 235 244 250 254 255 252 250 250 252 255 259 264 269 272 274 275 272 265 256 247 242 240 238 237 236 237 240 242 245 249 254 258 262 262 260 258 254 244 238 235 237 244 251 258 265 269 277 288 297 301 302 306 316 328 334 324 306 297 296 299 303 305 307 308 307 307 307 307 307 306 304 302 301 301 301 300 297 294 289 284 281 279 280 282
232 239 245 251 254 254 251 248 245 244 245 250 255 261 266 270 274 275 274 271 263 253 244 238 235 234 234 235 235 234 232 231 235 243 249 254 255 254 250 244 240 238 236 240 248 260 271 279 284 288 293 297 299 305 314 324 324 309 296 290 290 292 295 298 299 301 301 301 302 303 305 305 303 303 303 304 303 301 296 291 287 284 281 277 275 276
238 244 248 251 253 252 250 247 244 243 244 247 253 259 263 267 270 272 272 271 267 260 252 243 236 233 232 233 233 231 226 222 220 223 228 237 243 245 243 243 244 243 239 241 248 259 271 280 286 288 288 285 286 294 303 306 299 284 274 269 269 271 274 279 283 287 290 292 295 298 300 301 301 301 301 301 299 296 292 289 287 286 285 281 277 274
239 243 247 250 251 251 251 249 246 245 246 249 253 257 261 264 266 267 267 267 267 265 261 254 247 241 237 235 235 233 230 225 222 222 224 230 236 240 241 242 246 249 249 248 250 256 266 274 281 284 283 279 277 280 287 291 289 283 275 268 264 262 264 268 274 279 283 287 290 293 295 295 295 295 295 294 293 291 290 290 291 292 291 290 286 281
239 243 247 249 250 251 252 251 249 247 248 251 254 257 260 262 264 264 265 266 267 267 266 264 259 253 247 243 240 238 235 232 229 229 230 233 238 242 246 248 250 254 257 257 256 256 258 262 265 269 276 281 282 283 284 284 284 283 282 280 276 270 268 270 274 277 280 283 286 287 288 288 288 288 288 289 289 289 290 291 293 294 294 294 293 290
242 246 250 253 255 256 255 253 250 249 249 252 255 259 262 263 265 265 266 267 268 269 268 267 264 260 255 250 246 244 241 239 237 236 237 239 242 246 251 254 257 260 262 262 261 259 256 256 258 262 266 273 278 282 283 281 281 284 288 289 287 285 284 283 281 279 279 280 281 283 284 285 286 286 286 287 288 289 290 292 293 293 293 292 292 291
244 249 254 257 259 259 256 253 250 250 251 254 258 261 264 265 265 265 266 266 266 266 267 266 264 261 257 253 250 248 247 245 244 242 242 243 245 248 251 254 258 260 262 263 262 261 258 256 256 259 262 266 271 275 276 276 277 280 283 282 284 288 294 293 289 284 283 282 282 284 285 287 287 287 287 288 288 288 289 289 290 290 290 289 288 288
245 249 253 257 258 257 253 250 249 251 254 259 262 265 268 270 269 268 266 264 263 263 263 265 266 267 265 259 254 251 249 249 248 247 246 246 246 247 249 252 254 257 259 260 261 260 258 256 255 256 258 262 267 271 273 274 274 274 273 275 281 288 293 291 289 289 288 287 287 286 285 285 286 286 287 287 286 287 287 286 286 286 287 287 287 287
244 247 249 251 251 251 250 249 251 253 258 262 267 271 274 274 272 268 264 261 259 259 260 264 269 273 274 273 269 263 258 256 253 250 246 244 243 244 245 247 249 251 253 255 256 257 257 255 253 253 256 259 262 266 270 272 273 272 270 271 276 280 282 283 287 291 290 289 287 284 282 281 281 282 283 284 284 284 284 284 284 285 285 286 287 287
243 244 245 244 245 248 250 251 253 256 261 265 269 273 275 272 267 261 257 255 253 252 252 254 260 266 269 271 273 275 274 268 259 251 244 240 238 239 241 243 244 246 248 250 251 252 252 252 251 252 254 256 259 261 265 269 270 271 270 270 269 268 267 275 282 286 287 287 286 284 282 281 281 282 282 282 283 283 284 285 286 286 286 287 287 286
243 243 243 243 244 247 249 252 255 260 263 267 269 271 271 265 257 253 250 249 248 248 246 245 250 257 261 265 270 275 280 277 265 252 245 240 239 239 240 242 243 245 248 250 252 251 248 248 250 254 254 254 255 257 260 265 267 269 270 270 269 268 269 274 279 281 283 286 287 287 287 286 286 285 284 284 284 285 286 287 287 287 287 287 286 286
244 244 244 244 245 247 249 253 257 261 263 265 266 266 263 258 251 248 247 247 247 248 247 245 246 250 255 261 266 271 277 279 274 263 253 249 247 247 247 247 249 250 253 256 258 257 254 251 251 253 256 257 257 257 258 260 264 267 269 271 272 272 274 276 278 280 283 285 288 289 290 289 286 284 283 284 285 287 287 287 287 287 287 287 286 286
244 244 244 244 245 247 250 253 255 257 258 259 260 260 258 253 248 246 245 247 248 250 249 246 245 246 250 255 259 263 267 270 270 266 259 255 253 253 255 256 257 259 262 265 266 265 263 260 256 253 252 255 259 260 260 260 262 264 268 271 273 273 274 275 278 282 285 286 287 288 289 286 283 281 282 285 286 287 287 287 287 287 287 288 287 287
244 244 243 243 245 246 248 250 250 249 250 252 253 254 253 250 246 242 242 244 247 248 248 245 244 245 248 251 254 256 257 261 264 264 260 256 253 253 256 259 262 265 269 272 274 272 270 266 260 254 250 251 255 260 263 264 264 265 267 270 272 273 273 276 280 284 285 285 285 284 283 281 280 282 285 287 287 287 286 286 287 288 288 288 288 288
242 241 242 242 243 244 245 245 244 243 244 246 247 248 247 245 243 242 242 244 246 246 245 243 243 244 247 249 252 253 254 255 258 260 260 255 251 250 251 254 258 262 267 270 271 272 272 268 263 258 254 251 253 257 262 265 267 267 269 269 270 270 272 275 279 282 284 283 283 282 280 278 278 280 283 284 284 285 286 287 288 288 288 288 289 289
237 238 239 241 241 242 242 241 240 239 241 242 243 243 243 242 241 241 243 244 245 245 245 244 244 244 246 248 250 251 251 252 254 255 255 251 247 246 246 247 249 251 253 257 260 264 268 268 267 265 261 257 255 256 259 263 267 269 269 268 268 269 270 273 277 281 283 283 282 282 280 279 279 279 278 277 279 282 285 286 287 288 288 289 290 290
233 235 237 240 241 241 240 238 236 236 238 239 240 241 240 239 238 238 239 240 241 243 244 246 246 245 245 247 249 249 248 248 251 252 250 246 244 242 241 241 239 237 236 241 248 255 260 268 272 272 269 263 260 258 258 260 263 265 265 266 268 269 269 271 276 280 282 282 282 282 282 281 281 279 276 274 276 280 284 286 287 288 289 290 290 289